Regional Weather Roundup
Issued by NWS

Home | Current Version | Previous Version | Graphics & Text | Print | Product List | Glossary On
Versions: 1 2 3 4 5 6 7 8 9 10 11 12 13 14 15 16 17 18 19 20 21 22 23 24 25 26 27 28 29 30 31 32 33 34 35 36 37 38 39 40 41 42 43 44 45 46 47 48 49 50
000
ASUS43 KFSD 051210
RWRSD

WEATHER ROUNDUP FOR SOUTH DAKOTA
NATIONAL WEATHER SERVICE SIOUX FALLS SD
600 AM CST FRI FEB 05 2016

NOTE: "FAIR" INDICATES FEW OR NO CLOUDS BELOW 12,000 FEET WITH NO
SIGNIFICANT WEATHER AND/OR OBSTRUCTIONS TO VISIBILITY.


SDZ001>005-009-010-012>017-051300-
NORTHWEST AND NORTH CENTRAL SOUTH DAKOTA

CITY           SKY/WX    TMP DP  RH WIND       PRES   REMARKS
BUFFALO          N/A     30  25  81 NW23      30.06R WCI  17
FAITH            N/A     32  25  75 NW20      30.09R WCI  20
MOBRIDGE       CLOUDY    28  23  81 CALM      30.05R
$$

SDZ012>016-024>037-041>051-057-063-072>074-051300-
SOUTHWEST AND SOUTH CENTRAL SOUTH DAKOTA

CITY           SKY/WX    TMP DP  RH WIND       PRES   REMARKS
RAPID CTY ARPT CLEAR     31  24  75 N16       30.12R WCI  20
PIERRE         PTCLDY    24  20  84 SW3       30.09S
CUSTER         CLOUDY    24  15  68 W13G25    30.06R WCI  12
ELLSWORTH AFB  CLEAR     31  26  83 NW28G33   30.10S WCI  16
PHILIP         CLOUDY    34  26  72 W9        30.13R WCI  27
PINE RIDGE     PTCLDY    27  18  69 W9        30.16R WCI  18
SPEARFISH      HVY SNOW  28  28 100 NW15      30.15R WCI  17
WINNER         CLOUDY    30  21  69 SW7       30.13R WCI  23
$$

SDZ004>011-016>023-039-040-051300-
NORTHEAST SOUTH DAKOTA

CITY           SKY/WX    TMP DP  RH WIND       PRES   REMARKS
ABERDEEN       CLOUDY    23  17  78 S9        30.12S WCI  13
WATERTOWN      CLOUDY    15  10  80 S12       30.12F WCI   2
BROOKINGS      CLOUDY    12   9  87 S12         N/A  WCI  -2
SISSETON         N/A     25  17  72 S7        30.13S WCI  17
$$

SDZ017-020-022-023-036>040-048>070-051300-
SOUTHEAST SOUTH DAKOTA

CITY           SKY/WX    TMP DP  RH WIND       PRES   REMARKS
SIOUX FALLS    CLOUDY    17  11  77 S12       30.22F WCI   4
HURON          CLOUDY    21  16  81 S15       30.13F WCI   8
CHAMBERLAIN    MOCLDY    22  19  90 S5        30.12S WCI  16
MITCHELL       CLOUDY    20  15  81 S9        30.18S WCI   9
YANKTON        CLOUDY    14   9  79 SE8       30.23F WCI   3
$$

ABBREVIATIONS USED IN REMARKS
   TC - TEMPERATURE IN CELSIUS
  WCI - WIND CHILL INDEX
   HX - HEAT INDEX
  VSB - VISIBILITY




USA.gov is the U.S. government's official web portal to all federal, state and local government web resources and services.